Yeovilton, United Kingdom

6:01 AM BST on July 25, 2017 (GMT +0100)
Yeovil Radar Navy

Weather History for EGDY - March, 2013

Change the Weather History Date:

Monday, March 18, 2013

  Actual Average Record
Temperature  
Mean Temperature 40 °F -  
Max Temperature 50 °F 52 °F 62 °F (2005)
Min Temperature 30 °F 37 °F 26 °F (2016)
Degree Days  
Heating Degree Days 25    
Moisture  
Dew Point 32 °F    
Average Humidity 80    
Maximum Humidity 100    
Minimum Humidity 47    
Precipitation  
Precipitation 0.00 in - - ()
Sea Level Pressure  
Sea Level Pressure 29.25 in    
Wind  
Wind Speed 3 mph ()    
Max Wind Speed 8 mph    
Max Gust Speed -    
Visibility 7.6 miles    
Events Fog , Rain    
Averages and records for this station are not official NWS values.
T = Trace of Precipitation, MM = Missing Value Source: Averaged Metar Reports

Daily Weather History Graph

Daily Weather History Graph

Search for Another Location

Airport or City:

Trip Planner

Search our weather history database for the weather conditions in past years. The results will help you decide how hot, cold, wet, or windy it might be!

Date:

Astronomy

Mar. 18, 2013 Rise Set
Actual Time 6:17 AM GMT 6:20 PM GMT
Civil Twilight 5:44 AM GMT 6:53 PM GMT
Nautical Twilight 5:06 AM GMT 7:32 PM GMT
Astronomical Twilight 4:26 AM GMT 8:12 PM GMT
Moon 9:27 AM GMT (3/18) 12:44 AM GMT (3/18)
Length of Visible Light 13h 08m
Length of Day
12h 02m
Waxing Crescent, 39% of the Moon is Illuminated
Mar 18
Waxing Crescent
Mar 19
First Quarter
Mar 27
Full
Apr 3
Last Quarter
Apr 10
New

Hourly Weather History & Observations

Time (GMT) Temp. Windchill Dew Point Humidity Pressure Visibility Wind Dir Wind Speed Gust Speed Precip Events Conditions
12:50 AM 32.0 °F 27.5 °F 30.2 °F 93% 29.18 in 6.2 mi SE 4.6 mph - N/A   Unknown
1:50 AM 33.8 °F 27.7 °F 33.8 °F 100% 29.18 in 6.2 mi SE 6.9 mph - N/A Rain Light Rain Showers
2:50 AM 31 °F - 29 °F 92% 29.19 in 9 mi NE 1.2 mph - - Fog Patches of Fog
2:50 AM 30.2 °F - 30.2 °F 100% 29.18 in 6.2 mi NE 1.2 mph - N/A Fog Shallow Fog
3:50 AM 30.2 °F - 30.2 °F 100% 29.18 in 6.2 mi SSW 1.2 mph - N/A Fog Shallow Fog
4:50 AM 30.2 °F 26.7 °F 28.4 °F 93% 29.18 in 6.2 mi NNE 3.5 mph - N/A Fog Shallow Fog
5:50 AM 32 °F - 31 °F 94% 29.20 in 7 mi WNW 3.5 mph - -   Partly Cloudy
5:50 AM 32.0 °F 28.7 °F 30.2 °F 93% 29.18 in 6.2 mi WNW 3.5 mph - N/A   Mostly Cloudy
6:50 AM 32.0 °F - 32.0 °F 100% 29.18 in 5.6 mi West 2.3 mph - N/A   Mostly Cloudy
7:50 AM 33.8 °F 30.8 °F 33.8 °F 100% 29.21 in 5.0 mi West 3.5 mph - N/A   Mostly Cloudy
8:50 AM 38 °F - 36 °F 90% 29.22 in 3 mi NW 1.2 mph - -   Mist
8:50 AM 37.4 °F - 35.6 °F 93% 29.21 in 3.1 mi NW 1.2 mph - N/A   Mostly Cloudy
9:50 AM 42.8 °F - 39.2 °F 87% 29.21 in 6.2 mi ESE 2.3 mph - N/A   Scattered Clouds
10:50 AM 42.8 °F 40.1 °F 35.6 °F 76% 29.21 in 6.2 mi WNW 4.6 mph - N/A   Scattered Clouds
11:50 AM 46 °F - 36 °F 60% 29.24 in 19 mi NE 4.6 mph - -   Partly Cloudy
11:50 AM 46.4 °F 44.3 °F 37.4 °F 71% 29.24 in 6.2 mi NE 4.6 mph - N/A   Scattered Clouds
12:50 PM 46.4 °F 44.3 °F 32.0 °F 57% 29.24 in 6.2 mi NNE 4.6 mph - N/A   Scattered Clouds
1:50 PM 46.4 °F 44.3 °F 33.8 °F 62% 29.24 in 6.2 mi North 4.6 mph - N/A   Scattered Clouds
2:50 PM 47 °F - 33 °F 47% 29.26 in 19 mi NNW 5.8 mph - -   Partly Cloudy
2:50 PM 48.2 °F - 33.8 °F 58% 29.24 in 6.2 mi NNW 5.8 mph - N/A   Scattered Clouds
3:50 PM 48.2 °F - 33.8 °F 58% 29.24 in 6.2 mi NNE 8.1 mph - N/A   Scattered Clouds
4:50 PM 48.2 °F - 33.8 °F 58% 29.27 in 6.2 mi NNW 8.1 mph - N/A   Scattered Clouds
5:50 PM 45 °F - 33 °F 51% 29.29 in 19 mi NNW 6.9 mph - -   Scattered Clouds
5:50 PM 44.6 °F 40.7 °F 32.0 °F 61% 29.27 in 6.2 mi NNW 6.9 mph - N/A   Scattered Clouds
6:50 PM 41.0 °F 37.1 °F 30.2 °F 65% 29.30 in 6.2 mi WNW 5.8 mph - N/A   Partly Cloudy
7:50 PM 37.4 °F 34.9 °F 30.2 °F 75% 29.33 in 6.2 mi North 3.5 mph - N/A   Partly Cloudy
8:50 PM 36 °F - 31 °F 76% 29.35 in 12 mi SW 1.2 mph - -   Scattered Clouds
8:50 PM 35.6 °F - 32.0 °F 87% 29.33 in 6.2 mi SW 1.2 mph - N/A   Partly Cloudy
9:50 PM 33.8 °F - 30.2 °F 87% 29.36 in 6.2 mi South 1.2 mph - N/A   Partly Cloudy
10:50 PM 32.0 °F - 30.2 °F 93% 29.36 in - ESE 2.3 mph - N/A   Clear
11:50 PM 30 °F - 29 °F 93% 29.38 in 9 mi SE 1.2 mph - -   Scattered Clouds
11:50 PM 30.2 °F - 28.4 °F 93% 29.36 in - SE 1.2 mph - N/A   Clear